Volver al catálogo

STARLINK-34174

ActivoComunicacionesVLEO
NORAD 64097·PAYLOAD·🇺🇸 United States

Lanzado May 23, 2025 desde Vandenberg Space Force Base

Loading…

Próximos Pases (próximas 24 horas)

TLE

ActualizadoSource: CelesTrak SupGP

Época: Sep 15, 2026, 02:18 UTC

1 64097C 25110B   26258.09631944 -.00051731  00000+0 -15287-2 0  2585
2 64097  53.1576 223.0865 0000753  96.1162   9.8828 15.34409994    15

Sigue STARLINK-34174 en tiempo real con AllMySat

Download on the App Store